[[{"header":{"parameterUnit":"m.s-1","parameterCategory":1,"la1":30.2991,"la2":30.254,"lo1":-89.0895,"lo2":-89.0444,"dy":0.0017,"dx":0.0017,"nx":28,"ny":28,"refTime":"2024-02-03T09:00:00:Z","depth":0,"parameterNumber":2,"parameterNumberName":"U-component_of_WINDS"},"data":[0,0,0,0,0,0,0,0,0,0,0,0,0,0,0,0,0,0,0,0,0,0,0,0,0,0,0,0,0,0,0,0,0,0,0,0,0,0,0,0,0,0,0,0,0,0,0,0,0,0,0,0,0,0,0,0,0,0,-0.06,-0.0599,0,-0.0499,-0.0498,-0.0497,-0.0423,-0.0422,-0.0422,-0.0421,-0.0316,-0.0314,-0.0312,0,0,0,0,0,0,0,0,0,0,0,0,0,-0.0727,-0.0725,-0.06,-0.0599,-0.0598,-0.0499,-0.0498,-0.0496,-0.0423,-0.0422,-0.0422,-0.0421,-0.0317,-0.0315,-0.0312,0,0,0,0,0,0,0,0,0,0,0,0,0,-0.0654,-0.0725,-0.06,-0.0549,-0.0544,-0.05,-0.0498,-0.0496,-0.0423,-0.0422,-0.0421,-0.0421,-0.0318,-0.0315,-0.0312,-0.031,0,0,-0.0301,-0.03,0,0,0,0,0,0,0,0,-0.0658,-0.0649,-0.0558,-0.0553,-0.0546,-0.0473,-0.0504,-0.0434,-0.0424,-0.0469,-0.0421,-0.042,-0.0369,-0.0362,-0.0345,-0.0305,-0.03,-0.0301,-0.0299,-0.0298,-0.0297,0,0,0,0,0,0,0,-0.0663,-0.0653,-0.056,-0.0557,-0.055,-0.0531,-0.0519,-0.0491,-0.0425,-0.0465,-0.0459,-0.0448,-0.0366,-0.0348,-0.0342,-0.0299,-0.0301,-0.0298,-0.0296,-0.0295,-0.0253,-0.0254,0,0,0,0,0,0,-0.0677,-0.0658,-0.0563,-0.0557,-0.0601,-0.0529,-0.0516,-0.0497,-0.0426,-0.0414,-0.0449,-0.0445,-0.0354,-0.0346,-0.0338,-0.0332,-0.0298,-0.0295,-0.0293,-0.0252,-0.0253,-0.0254,0,0,0,0,0,0,-0.068,-0.0669,-0.0567,-0.0606,-0.0592,-0.0528,-0.0507,-0.0496,-0.0478,-0.0414,-0.0402,-0.0443,-0.0353,-0.0342,-0.0317,-0.0327,-0.0293,-0.029,-0.0251,-0.0252,-0.0254,-0.032,0,0,0,0,0,0,-0.0684,-0.067,-0.067,-0.0606,-0.059,-0.055,-0.0508,-0.0494,-0.0473,-0.0467,-0.0405,-0.0394,-0.0351,-0.0323,-0.0314,-0.0322,-0.0288,-0.025,-0.0252,-0.0253,-0.0316,-0.0323,-0.0329,0,0,0,0,0,-0.0688,-0.0692,-0.067,-0.0659,-0.0588,-0.055,-0.0541,-0.0492,-0.0474,-0.0472,-0.0431,-0.0396,-0.0327,-0.0321,-0.0311,-0.0317,-0.0249,-0.0251,-0.0253,-0.0314,-0.0322,-0.0329,0,0,0,0,0,0,-0.0758,-0.0683,-0.0658,-0.0641,-0.0603,-0.0538,-0.0535,-0.0502,-0.0468,-0.0464,-0.0405,-0.0391,-0.0373,-0.0342,-0.0337,-0.0312,-0.0284,-0.0284,-0.0333,-0.034,-0.0347,-0.0355,-0.0285,0,0,0,0,0,-0.0771,-0.0748,-0.0683,-0.0674,-0.0657,-0.0599,-0.0581,-0.0547,-0.0505,-0.0488,-0.0445,-0.0405,-0.0374,-0.0355,-0.0323,-0.0311,-0.0297,-0.031,-0.0317,-0.0322,-0.0323,-0.0315,-0.0321,-0.0261,-0.0261,-0.026,0,0,-0.0798,-0.0754,-0.0743,-0.0687,-0.0654,-0.0631,-0.0586,-0.0563,-0.0545,-0.0484,-0.0459,-0.0426,-0.0377,-0.0359,-0.0348,-0.0333,-0.0336,-0.0324,-0.0329,-0.0327,-0.0318,-0.0323,-0.0328,-0.0262,-0.0262,-0.0261,0,0,-0.0837,-0.0801,-0.079,-0.0757,-0.0707,-0.0669,-0.0666,-0.0606,-0.0582,-0.0556,-0.0509,-0.0487,-0.0435,-0.0402,-0.0379,-0.0404,-0.0371,-0.0395,-0.0428,-0.0421,-0.0426,-0.043,-0.044,-0.0444,-0.0396,-0.0396,-0.0397,0,-0.0877,-0.0841,-0.0789,-0.0769,-0.0746,-0.0689,-0.0678,-0.0648,-0.059,-0.0575,-0.0558,-0.0492,-0.0455,-0.0429,-0.0435,-0.0418,-0.0413,-0.0403,-0.0429,-0.0433,-0.0436,-0.0445,-0.0449,-0.04,-0.0399,-0.0399,-0.0399,0,-0.0894,-0.0869,-0.0866,-0.0812,-0.0788,-0.0773,-0.0718,-0.07,-0.0667,-0.0631,-0.0604,-0.0558,-0.0516,-0.0507,-0.0474,-0.0476,-0.0468,-0.0441,-0.0411,-0.0446,-0.0453,-0.0456,-0.0405,-0.0404,-0.0403,-0.0402,0,0,-0.0975,-0.0891,-0.0891,-0.0866,-0.0806,-0.0786,-0.0767,-0.0727,-0.0713,-0.0674,-0.0658,-0.0615,-0.0589,-0.0563,-0.0526,-0.052,-0.0544,-0.0493,-0.0491,-0.0506,-0.0543,-0.0566,-0.057,-0.0521,-0.0521,-0.0521,-0.0548,0,-0.1005,-0.097,-0.0922,-0.0903,-0.088,-0.0825,-0.0809,-0.077,-0.0735,-0.071,-0.067,-0.0642,-0.061,-0.0594,-0.0585,-0.0543,-0.0551,-0.054,-0.0505,-0.0505,-0.0521,-0.0574,-0.0597,-0.0625,-0.055,-0.0551,-0.0551,0,-0.1036,-0.1001,-0.0981,-0.0922,-0.0911,-0.0897,-0.0856,-0.0832,-0.0787,-0.0762,-0.0732,-0.0693,-0.067,-0.0643,-0.0611,-0.0605,-0.0587,-0.0564,-0.0564,-0.056,-0.0532,-0.0573,-0.0632,-0.0637,-0.0555,-0.0555,-0.0554,0,-0.11,-0.1047,-0.1027,-0.1007,-0.0939,-0.0931,-0.0901,-0.0855,-0.0834,-0.0797,-0.0783,-0.0744,-0.0723,-0.0694,-0.0645,-0.0629,-0.0618,-0.0586,-0.0597,-0.0599,-0.0599,-0.06,-0.0658,-0.0585,-0.0585,-0.0585,-0.0585,0,-0.114,-0.113,-0.1055,-0.1044,-0.103,-0.0974,-0.0962,-0.0928,-0.0887,-0.0867,-0.0816,-0.0799,-0.0734,-0.0709,-0.067,-0.065,-0.0641,-0.062,-0.061,-0.0626,-0.0629,-0.0615,-0.0612,-0.0586,-0.0586,-0.0586,-0.0585,0,-0.1209,-0.1159,-0.1135,-0.1071,-0.1055,-0.1048,-0.0993,-0.098,-0.0941,-0.0917,-0.0908,-0.0848,-0.0815,-0.0763,-0.0715,-0.0689,-0.0676,-0.0659,-0.0693,-0.0687,-0.0701,-0.0701,-0.0753,-0.0758,-0.0681,-0.0682,-0.0683,0,-0.124,-0.123,-0.1166,-0.115,-0.1122,-0.1096,-0.1074,-0.1018,-0.0997,-0.0944,-0.0937,-0.0901,-0.0869,-0.082,-0.0772,-0.0735,-0.0717,-0.0737,-0.0711,-0.0727,-0.0719,-0.0721,-0.072,-0.0745,-0.0746,-0.0746,-0.0747,0,-0.1299,-0.1274,-0.1245,-0.1206,-0.1182,-0.1149,-0.1113,-0.1102,-0.1038,-0.1017,-0.0984,-0.0959,-0.091,-0.0875,-0.0831,-0.08,-0.0764,-0.0756,-0.0756,-0.0773,-0.0794,-0.0785,-0.0711,-0.0755,-0.0754,-0.0754,-0.0753,-0.0753,-0.135,-0.134,-0.1293,-0.1262,-0.1229,-0.1197,-0.1181,-0.1141,-0.1112,-0.1069,-0.1036,-0.1006,-0.0959,-0.0897,-0.0868,-0.0843,-0.0826,-0.0827,-0.0827,-0.0829,-0.0836,-0.0796,-0.0834,-0.0834,-0.0833,-0.0833,-0.0833,0,-0.1409,-0.1376,-0.1347,-0.1299,-0.1275,-0.1241,-0.12,-0.1182,-0.1155,-0.1115,-0.1085,-0.1047,-0.1012,-0.0961,-0.0922,-0.0912,-0.0894,-0.0904,-0.0905,-0.0899,-0.0852,-0.0856,-0.0919,-0.0919,-0.0919,-0.0919,-0.0919,-0.0919,-0.1436,-0.1417,-0.1387,-0.1351,-0.1317,-0.1287,-0.1266,-0.1236,-0.1204,-0.1164,-0.1135,-0.1102,-0.1057,-0.1015,-0.0982,-0.0967,-0.0956,-0.0972,-0.0952,-0.091,-0.0902,-0.0895,-0.0898,-0.0969,-0.0969,-0.1001,-0.1002,-0.1002]},{"header":{"parameterUnit":"m.s-1","parameterCategory":1,"la1":30.2991,"la2":30.254,"lo1":-89.0895,"lo2":-89.0444,"dy":0.0017,"dx":0.0017,"nx":28,"ny":28,"refTime":"2024-02-03T09:00:00:Z","depth":0,"parameterNumber":3,"parameterNumberName":"V-component_of_WINDS"},"data":[0,0,0,0,0,0,0,0,0,0,0,0,0,0,0,0,0,0,0,0,0,0,0,0,0,0,0,0,0,0,0,0,0,0,0,0,0,0,0,0,0,0,0,0,0,0,0,0,0,0,0,0,0,0,0,0,0,0,0.8039,0.804,0,0.8124,0.8125,0.8126,0.8211,0.8212,0.8214,0.8215,0.8295,0.8296,0.8297,0,0,0,0,0,0,0,0,0,0,0,0,0,0.7948,0.7949,0.8039,0.804,0.8041,0.8123,0.8125,0.8126,0.8211,0.8213,0.8214,0.8215,0.8295,0.8296,0.8297,0,0,0,0,0,0,0,0,0,0,0,0,0,0.8005,0.795,0.8039,0.8094,0.81,0.8123,0.8125,0.8126,0.8211,0.8213,0.8214,0.8216,0.8295,0.8296,0.8298,0.8272,0,0,0.8302,0.8303,0,0,0,0,0,0,0,0,0.8002,0.8008,0.8085,0.809,0.8097,0.8159,0.8122,0.8175,0.821,0.8168,0.8215,0.8217,0.8248,0.8254,0.8265,0.8276,0.8279,0.8303,0.8304,0.8304,0.8305,0,0,0,0,0,0,0,0.7998,0.8005,0.8073,0.8086,0.8093,0.8113,0.8123,0.8132,0.8197,0.8172,0.8179,0.8188,0.8252,0.8264,0.8268,0.828,0.8303,0.8304,0.8305,0.8305,0.8275,0.8274,0,0,0,0,0,0,0.7986,0.8001,0.807,0.8075,0.8053,0.8113,0.8125,0.8137,0.8197,0.8208,0.8186,0.8191,0.826,0.8266,0.8271,0.8246,0.8304,0.8306,0.8307,0.8277,0.8275,0.8273,0,0,0,0,0,0,0.7984,0.7991,0.8066,0.804,0.8051,0.8113,0.8126,0.8138,0.815,0.8208,0.8219,0.8187,0.8262,0.8269,0.8272,0.825,0.8306,0.8308,0.8279,0.8277,0.8274,0.8195,0,0,0,0,0,0,0.7981,0.799,0.7982,0.8039,0.8052,0.8067,0.8125,0.8138,0.8153,0.8161,0.8212,0.8222,0.8264,0.8269,0.8273,0.8253,0.8309,0.8281,0.8278,0.8275,0.82,0.819,0.8182,0,0,0,0,0,0.7977,0.7955,0.7981,0.7989,0.8044,0.8065,0.8073,0.8123,0.8151,0.8143,0.818,0.822,0.8252,0.8269,0.8274,0.8254,0.8283,0.8279,0.8275,0.8204,0.8192,0.8182,0,0,0,0,0,0,0.7891,0.7963,0.7993,0.7989,0.8021,0.808,0.8071,0.8109,0.8132,0.8138,0.8197,0.8208,0.8204,0.823,0.8247,0.8233,0.8273,0.827,0.8217,0.8206,0.8197,0.8191,0.831,0,0,0,0,0,0.7871,0.7885,0.7947,0.7937,0.7952,0.8008,0.802,0.8056,0.8091,0.8104,0.8142,0.8172,0.8189,0.8199,0.8218,0.8204,0.8217,0.8193,0.8184,0.8176,0.8173,0.8169,0.8159,0.826,0.826,0.826,0,0,0.7831,0.7872,0.7877,0.7921,0.795,0.7961,0.8019,0.8028,0.8037,0.8105,0.8111,0.8139,0.8177,0.8172,0.8172,0.8193,0.8148,0.8171,0.8165,0.8166,0.8164,0.8154,0.8146,0.8258,0.8258,0.8259,0,0,0.7764,0.7796,0.7792,0.7821,0.7865,0.7903,0.7902,0.7956,0.7979,0.7986,0.8038,0.8048,0.8076,0.8102,0.8118,0.8062,0.81,0.8066,0.8019,0.8014,0.8006,0.7999,0.798,0.7972,0.8063,0.8063,0.8063,0,0.7707,0.7728,0.7785,0.7792,0.781,0.7874,0.787,0.7894,0.7941,0.7951,0.7975,0.8013,0.8043,0.8045,0.8032,0.8043,0.8043,0.8061,0.8003,0.7997,0.7991,0.7973,0.7966,0.8058,0.8059,0.8059,0.806,0,0.7657,0.7671,0.7662,0.7709,0.7726,0.7727,0.7783,0.7793,0.7828,0.7863,0.787,0.7909,0.7937,0.794,0.7973,0.7948,0.796,0.7992,0.8033,0.7976,0.7961,0.7954,0.8052,0.8054,0.8055,0.8056,0,0,0.7537,0.7616,0.7612,0.7635,0.7689,0.77,0.7704,0.7734,0.7742,0.7772,0.7776,0.78,0.7831,0.7849,0.7886,0.7882,0.7836,0.7915,0.7917,0.79,0.7811,0.7786,0.7777,0.7862,0.786,0.786,0.7808,0,0.7479,0.7493,0.7544,0.7542,0.7555,0.7617,0.7621,0.7654,0.7687,0.7702,0.7739,0.7755,0.7794,0.7806,0.7804,0.7842,0.7819,0.7846,0.7866,0.7866,0.7855,0.7769,0.7743,0.7692,0.7802,0.7801,0.78,0,0.7413,0.7442,0.7442,0.7497,0.7505,0.7507,0.754,0.7554,0.7592,0.7617,0.7639,0.7681,0.7688,0.7726,0.7737,0.7754,0.7765,0.7785,0.7784,0.7788,0.7829,0.7771,0.7677,0.767,0.7791,0.7792,0.7792,0,0.7326,0.7365,0.737,0.7387,0.7452,0.7452,0.7478,0.7519,0.7534,0.7562,0.7573,0.76,0.7614,0.7634,0.7682,0.7706,0.7687,0.7729,0.7707,0.7706,0.77,0.77,0.7607,0.7707,0.7707,0.7707,0.7707,0,0.7256,0.7254,0.7332,0.7335,0.7334,0.7393,0.739,0.7422,0.7458,0.7468,0.7522,0.7529,0.7593,0.7607,0.7644,0.7648,0.7653,0.7673,0.7683,0.7669,0.7666,0.7676,0.7681,0.7705,0.7705,0.7706,0.7706,0,0.7159,0.7211,0.7221,0.7282,0.7298,0.7294,0.7346,0.7351,0.7388,0.74,0.7406,0.7464,0.7484,0.7534,0.7566,0.7592,0.7585,0.7603,0.7572,0.7579,0.7554,0.7556,0.7465,0.7456,0.756,0.7559,0.7558,0,0.7111,0.7111,0.7173,0.7184,0.721,0.7227,0.7244,0.7302,0.7317,0.7362,0.7361,0.7386,0.7409,0.7438,0.7482,0.7507,0.7527,0.7493,0.7531,0.7517,0.7527,0.7527,0.7527,0.7485,0.7483,0.7482,0.7481,0,0.7021,0.7047,0.707,0.7103,0.7122,0.7149,0.718,0.7186,0.7251,0.7265,0.7287,0.7305,0.734,0.7364,0.7397,0.7423,0.7462,0.7469,0.7466,0.7451,0.7433,0.7443,0.755,0.7471,0.7472,0.7473,0.7473,0.7474,0.6947,0.695,0.6995,0.7019,0.7049,0.7077,0.7085,0.7124,0.7145,0.7179,0.7212,0.7231,0.7271,0.7319,0.7342,0.7358,0.7378,0.7372,0.7371,0.7369,0.7363,0.7431,0.7364,0.7364,0.7364,0.7365,0.7365,0,0.686,0.6893,0.6914,0.6957,0.6976,0.7014,0.705,0.7063,0.708,0.7114,0.7137,0.7163,0.7187,0.7234,0.7262,0.7265,0.7284,0.727,0.7271,0.7276,0.7342,0.7343,0.7255,0.7255,0.7255,0.7255,0.7255,0.7255,0.6817,0.6825,0.6857,0.6881,0.6913,0.6934,0.6952,0.6977,0.7005,0.7033,0.7054,0.7085,0.7125,0.7156,0.718,0.7193,0.7201,0.7181,0.72,0.7261,0.7271,0.7281,0.7282,0.7182,0.7182,0.7132,0.7132,0.7132]}]]